Location: Marion Hill
(40.7303°N, 80.2959°W)
Time: 01:42:12
(UTC+00:00)

X-37B - Visible Passes

Search period start: 18 June 2021 00:00
Search period end: 28 June 2021 00:00
Orbit: 386 x 389 km, 45.0° (Epoch: 10 June)

Date Brightness Start Highest point End Pass type
(mag) Time Alt. Az. Time Alt. Az. Time Alt. Az.
18 Jun 1.9 06:57:24 36° NNW 06:57:45 37° N 07:00:45 10° ENE visible
18 Jun 1.7 08:31:40 10° WNW 08:34:46 46° NNE 08:37:50 10° E visible
19 Jun 3.2 06:01:26 17° ENE 06:01:26 17° ENE 06:02:21 10° ENE visible
19 Jun 2.0 07:33:43 13° WNW 07:36:17 38° N 07:39:17 10° ENE visible
19 Jun 0.5 09:09:55 10° WNW 09:13:06 78° SSW 09:16:15 10° ESE visible
20 Jun 2.2 06:37:56 35° N 06:37:56 35° N 06:40:45 10° ENE visible
20 Jun 0.9 08:11:33 10° WNW 08:14:43 66° NNE 08:17:53 10° ESE visible
21 Jun 1.6 07:14:49 25° NW 07:16:17 47° NNE 07:19:22 10° E visible
21 Jun 0.9 08:49:54 10° WNW 08:52:56 43° SSW 08:55:58 10° SE visible
22 Jun 3.3 03:01:03 10° SW 03:01:06 10° SW 03:01:06 10° SW visible
22 Jun 3.4 06:20:14 14° ENE 06:20:14 14° ENE 06:20:50 10° ENE visible
22 Jun 0.4 07:52:39 21° WNW 07:54:37 77° SSW 07:57:47 10° ESE visible
23 Jun 1.5 02:03:07 10° SSW 02:05:52 27° SSE 02:08:38 10° E visible
23 Jun 1.9 03:39:13 10° W 03:41:14 34° W 03:41:14 34° W visible
23 Jun 1.7 08:32:13 23° SW 08:32:42 24° SW 08:35:18 10° SSE visible
24 Jun 0.4 02:40:48 10° WSW 02:43:59 87° SSE 02:47:10 10° ENE visible
24 Jun 2.7 04:17:49 10° WNW 04:19:34 25° NW 04:19:34 25° NW visible
25 Jun 0.8 01:42:34 10° SW 01:45:39 50° SSE 01:48:44 10° ENE visible
25 Jun 1.7 03:19:17 10° W 03:22:20 44° NNW 03:24:24 18° NE visible
25 Jun 3.6 04:56:20 10° WNW 04:56:42 12° WNW 04:56:42 12° WNW visible
26 Jun 1.1 02:20:45 10° W 02:23:54 60° NNW 02:27:03 10° ENE visible
26 Jun 2.1 03:57:53 10° WNW 04:00:52 35° N 04:01:00 35° N visible
27 Jun 0.6 01:22:20 10° WSW 01:25:30 87° SSE 01:28:41 10° ENE visible
27 Jun 2.1 02:59:22 10° WNW 03:02:21 37° N 03:05:06 12° ENE visible
27 Jun 3.1 04:36:16 10° WNW 04:37:22 19° NW 04:37:22 19° NW visible
